| time (UTC) | temp F | wind direction | speed MPH | gust MPH | rain 1hr in | rain 24hr in | rain mn in | humidity % | barometer mb |
| 20260510191547 | 62 | 189 | 2.0 | 8.0 | 0.00 | 0.10 | 0.10 | 73 | 1016.3 |
| 20260510190050 | 63 | 189 | 6.0 | 14.0 | 0.00 | 0.10 | 0.10 | 73 | 1016.4 |
| 20260510184546 | 63 | 189 | 8.0 | 16.0 | 0.00 | 0.10 | 0.10 | 73 | 1016.3 |
| 20260510183056 | 63 | 189 | 9.0 | 17.0 | 0.00 | 0.10 | 0.10 | 73 | 1016.3 |
| 20260510181617 | 63 | 196 | 12.0 | 22.0 | 0.00 | 0.10 | 0.10 | 73 | 1016.3 |
| 20260510180055 | 64 | 190 | 8.0 | 16.0 | 0.00 | 0.10 | 0.10 | 73 | 1016.2 |
| 20260510174555 | 64 | 191 | 7.0 | 16.0 | 0.00 | 0.10 | 0.10 | 72 | 1016.2 |
| 20260510173045 | 64 | 186 | 11.0 | 16.0 | 0.00 | 0.10 | 0.10 | 72 | 1016.1 |
| 20260510171545 | 65 | 196 | 11.0 | 17.0 | 0.00 | 0.10 | 0.10 | 72 | 1016.2 |
| 20260510170045 | 65 | 203 | 8.0 | 16.0 | 0.00 | 0.10 | 0.10 | 73 | 1016.1 |
| 20260510164545 | 66 | 198 | 9.0 | 16.0 | 0.00 | 0.10 | 0.10 | 73 | 1016.0 |
| 20260510163053 | 66 | 199 | 8.0 | 16.0 | 0.00 | 0.10 | 0.10 | 73 | 1015.9 |
| 20260510161545 | 67 | 201 | 9.0 | 17.0 | 0.00 | 0.10 | 0.10 | 73 | 1015.9 |
| 20260510160044 | 67 | 205 | 9.0 | 18.0 | 0.00 | 0.10 | 0.10 | 74 | 1015.7 |
| 20260510154538 | 67 | 198 | 10.0 | 18.0 | 0.00 | 0.10 | 0.10 | 74 | 1015.8 |
| 20260510153050 | 67 | 197 | 12.0 | 21.0 | 0.00 | 0.10 | 0.10 | 74 | 1015.9 |
| 20260510151549 | 67 | 186 | 9.0 | 20.0 | 0.00 | 0.10 | 0.10 | 75 | 1015.6 |
| 20260510150048 | 66 | 193 | 13.0 | 23.0 | 0.00 | 0.10 | 0.10 | 75 | 1015.7 |
| 20260510144545 | 67 | 198 | 11.0 | 21.0 | 0.00 | 0.10 | 0.10 | 75 | 1015.8 |
| 20260510143059 | 67 | 191 | 11.0 | 24.0 | 0.00 | 0.10 | 0.10 | 75 | 1015.9 |
| 20260510141545 | 67 | 193 | 9.0 | 20.0 | 0.00 | 0.10 | 0.10 | 76 | 1016.0 |
| 20260510140045 | 67 | 213 | 11.0 | 24.0 | 0.00 | 0.10 | 0.10 | 76 | 1015.9 |
| 20260510134555 | 67 | 211 | 12.0 | 25.0 | 0.00 | 0.10 | 0.10 | 76 | 1015.9 |
| 20260510133044 | 67 | 201 | 11.0 | 19.0 | 0.00 | 0.10 | 0.10 | 77 | 1015.9 |
| 20260510131546 | 67 | 197 | 12.0 | 24.0 | 0.00 | 0.10 | 0.10 | 77 | 1015.9 |
| 20260510130045 | 67 | 194 | 10.0 | 20.0 | 0.00 | 0.10 | 0.10 | 77 | 1015.9 |
| 20260510124551 | 67 | 202 | 14.0 | 21.0 | 0.00 | 0.10 | 0.10 | 78 | 1015.9 |
| 20260510123046 | 67 | 211 | 13.0 | 24.0 | 0.00 | 0.10 | 0.10 | 78 | 1015.9 |
| 20260510121545 | 66 | 201 | 9.0 | 23.0 | 0.00 | 0.10 | 0.10 | 79 | 1015.9 |
| 20260510120046 | 66 | 193 | 8.0 | 22.0 | 0.00 | 0.10 | 0.10 | 79 | 1016.0 |
| 20260510114554 | 66 | 203 | 11.0 | 23.0 | 0.00 | 0.10 | 0.10 | 79 | 1015.9 |
| 20260510113051 | 66 | 191 | 14.0 | 21.0 | 0.00 | 0.10 | 0.10 | 80 | 1015.9 |
| 20260510111548 | 66 | 188 | 12.0 | 21.0 | 0.00 | 0.10 | 0.10 | 80 | 1015.8 |
| 20260510110044 | 65 | 187 | 10.0 | 18.0 | 0.00 | 0.10 | 0.10 | 80 | 1016.1 |
| 20260510104545 | 65 | 193 | 7.0 | 15.0 | 0.00 | 0.10 | 0.10 | 81 | 1016.0 |
| 20260510103052 | 64 | 198 | 9.0 | 15.0 | 0.00 | 0.10 | 0.10 | 81 | 1016.0 |
| 20260510101544 | 64 | 200 | 9.0 | 17.0 | 0.00 | 0.10 | 0.10 | 81 | 1016.0 |
| 20260510100106 | 64 | 204 | 12.0 | 20.0 | 0.00 | 0.10 | 0.10 | 82 | 1015.9 |
| 20260510094549 | 65 | 197 | 10.0 | 22.0 | 0.00 | 0.10 | 0.10 | 82 | 1015.8 |
| 20260510093049 | 64 | 190 | 9.0 | 18.0 | 0.00 | 0.10 | 0.10 | 83 | 1015.4 |
| 20260510091544 | 64 | 185 | 7.0 | 20.0 | 0.00 | 0.10 | 0.10 | 83 | 1015.4 |
| 20260510090055 | 64 | 181 | 11.0 | 21.0 | 0.00 | 0.10 | 0.10 | 83 | 1015.1 |
| 20260510084549 | 63 | 182 | 6.0 | 14.0 | 0.00 | 0.10 | 0.10 | 83 | 1015.0 |
| 20260510083054 | 62 | 184 | 7.0 | 15.0 | 0.00 | 0.10 | 0.10 | 83 | 1014.9 |
| 20260510081549 | 62 | 184 | 5.0 | 12.0 | 0.00 | 0.10 | 0.10 | 83 | 1014.9 |
| 20260510080052 | 61 | 184 | 4.0 | 9.0 | 0.00 | 0.10 | 0.10 | 83 | 1014.9 |
| 20260510074544 | 60 | 184 | 4.0 | 11.0 | 0.00 | 0.15 | 0.10 | 83 | 1014.8 |
| 20260510073044 | 60 | 184 | 3.0 | 13.0 | 0.00 | 0.15 | 0.10 | 83 | 1014.9 |
| 20260510071553 | 59 | 184 | 5.0 | 12.0 | 0.00 | 0.15 | 0.10 | 82 | 1014.7 |
| 20260510070050 | 58 | 184 | 2.0 | 6.0 | 0.00 | 0.15 | 0.10 | 82 | 1014.5 |
| 20260510064546 | 57 | 184 | 3.0 | 11.0 | 0.01 | 0.16 | 0.10 | 82 | 1014.6 |
| 20260510063046 | 57 | 184 | 1.0 | 4.0 | 0.03 | 0.16 | 0.10 | 82 | 1014.3 |
| 20260510061550 | 56 | 184 | 2.0 | 5.0 | 0.03 | 0.16 | 0.10 | 81 | 1014.3 |
| 20260510060047 | 56 | 184 | 3.0 | 6.0 | 0.03 | 0.16 | 0.10 | 81 | 1014.1 |
| 20260510054545 | 56 | 184 | 0.0 | 2.0 | 0.01 | 0.15 | 0.07 | 81 | 1014.3 |
| 20260510053049 | 56 | 0 | 0.0 | 0.0 | 0.00 | 0.14 | 0.06 | 81 | 1014.2 |
| 20260510051546 | 56 | 0 | 0.0 | 0.0 | 0.00 | 0.14 | 0.06 | 81 | 1014.1 |
| 20260510050047 | 57 | 184 | 1.0 | 4.0 | 0.00 | 0.14 | 0.06 | 81 | 1013.8 |
| 20260510044546 | 57 | 184 | 2.0 | 5.0 | 0.00 | 0.14 | 0.06 | 81 | 1013.7 |
| 20260510043053 | 56 | 184 | 3.0 | 6.0 | 0.06 | 0.14 | 0.06 | 81 | 1013.7 |
| 20260510041545 | 57 | 184 | 2.0 | 4.0 | 0.06 | 0.14 | 0.06 | 81 | 1013.8 |
| 20260510040053 | 57 | 184 | 2.0 | 9.0 | 0.06 | 0.14 | 0.06 | 81 | 1013.8 |
| 20260510034546 | 58 | 184 | 5.0 | 9.0 | 0.03 | 0.11 | 0.03 | 81 | 1013.8 |
| 20260510033110 | 58 | 185 | 5.0 | 9.0 | 0.00 | 0.07 | 0.00 | 81 | 1013.8 |
| 20260510031551 | 60 | 185 | 3.0 | 7.0 | 0.00 | 0.07 | 0.00 | 81 | 1013.9 |
| 20260510030045 | 59 | 185 | 3.0 | 6.0 | 0.00 | 0.07 | 0.00 | 81 | 1013.9 |
| 20260510024546 | 59 | 185 | 2.0 | 5.0 | 0.00 | 0.14 | 0.00 | 81 | 1013.8 |
| 20260510023045 | 59 | 185 | 2.0 | 5.0 | 0.00 | 0.14 | 0.00 | 81 | 1013.7 |
| 20260510021547 | 59 | 185 | 2.0 | 5.0 | 0.00 | 0.14 | 0.00 | 80 | 1013.9 |
| 20260510020046 | 59 | 185 | 1.0 | 2.0 | 0.00 | 0.14 | 0.00 | 80 | 1014.0 |
| 20260510014544 | 59 | 185 | 0.0 | 2.0 | 0.00 | 0.20 | 0.00 | 80 | 1014.1 |
| 20260510013049 | 59 | 185 | 0.0 | 4.0 | 0.00 | 0.20 | 0.00 | 80 | 1014.1 |
| 20260510011552 | 60 | 185 | 1.0 | 2.0 | 0.00 | 0.20 | 0.00 | 80 | 1014.2 |
| 20260510010045 | 60 | 0 | 1.0 | 4.0 | 0.00 | 0.20 | 0.00 | 80 | 1014.2 |
| 20260510004550 | 60 | 185 | 1.0 | 4.0 | 0.00 | 0.20 | 0.00 | 80 | 1014.5 |
| 20260510003104 | 59 | 185 | 1.0 | 3.0 | 0.00 | 0.20 | 0.00 | 79 | 1014.6 |
| 20260510001545 | 60 | 0 | 1.0 | 4.0 | 0.00 | 0.20 | 0.00 | 79 | 1014.7 |
| 20260510000047 | 60 | 185 | 2.0 | 4.0 | 0.00 | 0.20 | 0.00 | 79 | 1014.7 |
| 20260509234601 | 60 | 185 | 2.0 | 5.0 | 0.00 | 0.29 | 0.00 | 79 | 1014.9 |
| 20260509233047 | 60 | 185 | 2.0 | 5.0 | 0.00 | 0.29 | 0.00 | 79 | 1015.1 |
| 20260509231552 | 61 | 185 | 5.0 | 8.0 | 0.00 | 0.29 | 0.00 | 79 | 1015.2 |
| 20260509230053 | 60 | 185 | 3.0 | 6.0 | 0.00 | 0.29 | 0.00 | 79 | 1015.2 |
| 20260509224549 | 60 | 185 | 5.0 | 9.0 | 0.00 | 0.33 | 0.29 | 79 | 1015.1 |
| 20260509223053 | 61 | 185 | 2.0 | 9.0 | 0.00 | 0.33 | 0.29 | 79 | 1015.2 |
| 20260509221545 | 61 | 185 | 3.0 | 7.0 | 0.00 | 0.33 | 0.29 | 79 | 1015.2 |
| 20260509220050 | 60 | 185 | 4.0 | 13.0 | 0.00 | 0.33 | 0.29 | 79 | 1015.2 |
| 20260509214549 | 61 | 185 | 5.0 | 10.0 | 0.00 | 0.33 | 0.29 | 79 | 1015.1 |
| 20260509213050 | 61 | 185 | 1.0 | 3.0 | 0.00 | 0.33 | 0.29 | 79 | 1015.0 |
| 20260509211544 | 61 | 185 | 2.0 | 5.0 | 0.00 | 0.33 | 0.29 | 78 | 1015.0 |
| 20260509210048 | 61 | 185 | 2.0 | 5.0 | 0.00 | 0.33 | 0.29 | 78 | 1014.9 |
| 20260509204545 | 61 | 185 | 3.0 | 8.0 | 0.00 | 0.33 | 0.29 | 78 | 1014.6 |
| 20260509203044 | 61 | 185 | 3.0 | 6.0 | 0.00 | 0.33 | 0.29 | 78 | 1014.6 |
| 20260509201546 | 61 | 185 | 3.0 | 7.0 | 0.00 | 0.33 | 0.29 | 77 | 1014.3 |
| 20260509200053 | 61 | 185 | 3.0 | 9.0 | 0.00 | 0.33 | 0.29 | 77 | 1014.1 |
| 20260509194542 | 61 | 185 | 3.0 | 10.0 | 0.00 | 0.33 | 0.29 | 77 | 1013.9 |
| 20260509193044 | 62 | 185 | 3.0 | 10.0 | 0.00 | 0.33 | 0.29 | 77 | 1013.9 |